Time,TemperatureF,DewpointF,PressureIn,WindDirection,WindDirectionDegrees,WindSpeedMPH,WindSpeedGustMPH,Humidity,HourlyPrecipIn,Conditions,Clouds,dailyrainin,SoftwareType,DateUTC
2013-11-22 00:01:00,72.0,69.4,30.13,ENE,67,1.0,9.0,92,0.00,,,0.00,meteohub,2013-11-22 05:01:00,
2013-11-22 00:04:00,71.8,69.3,30.13,ESE,106,1.0,9.0,92,0.00,,,0.00,meteohub,2013-11-22 05:04:00,
2013-11-22 00:10:00,71.8,69.3,30.13,SSE,156,4.0,8.0,92,0.00,,,0.00,meteohub,2013-11-22 05:10:00,
2013-11-22 00:12:00,71.8,69.3,30.13,NE,34,6.0,8.0,92,0.00,,,0.00,meteohub,2013-11-22 05:12:00,
2013-11-22 00:13:00,71.8,69.3,30.13,East,83,3.0,8.0,92,0.00,,,0.00,meteohub,2013-11-22 05:13:00,
2013-11-22 00:19:00,71.8,69.3,30.13,East,84,9.0,9.0,92,0.00,,,0.00,meteohub,2013-11-22 05:19:00,
2013-11-22 00:22:00,71.8,69.3,30.13,ENE,63,4.0,8.0,92,0.00,,,0.00,meteohub,2013-11-22 05:22:00,
2013-11-22 00:27:00,71.6,69.4,30.13,ENE,65,1.0,9.0,93,0.00,,,0.00,meteohub,2013-11-22 05:27:00,
2013-11-22 00:32:00,71.6,69.4,30.13,ENE,72,3.0,11.0,93,0.00,,,0.00,meteohub,2013-11-22 05:32:00,
2013-11-22 00:37:00,71.4,69.3,30.13,ENE,72,1.0,11.0,93,0.00,,,0.00,meteohub,2013-11-22 05:37:00,
2013-11-22 00:42:00,71.4,69.3,30.13,ENE,61,1.0,8.0,93,0.00,,,0.00,meteohub,2013-11-22 05:42:00,
2013-11-22 00:47:00,71.6,69.4,30.13,NNE,25,2.0,8.0,93,0.00,,,0.00,meteohub,2013-11-22 05:47:00,
2013-11-22 00:52:00,71.6,69.4,30.12,ENE,72,1.0,7.0,93,0.00,,,0.00,meteohub,2013-11-22 05:52:00,
2013-11-22 00:57:00,71.6,69.4,30.12,NE,36,3.0,7.0,93,0.00,,,0.00,meteohub,2013-11-22 05:57:00,
2013-11-22 01:02:00,71.6,69.4,30.12,SE,124,7.0,7.0,93,0.00,,,0.00,meteohub,2013-11-22 06:02:00,
2013-11-22 01:07:00,71.6,69.4,30.12,ENE,78,4.0,8.0,93,0.00,,,0.00,meteohub,2013-11-22 06:07:00,
2013-11-22 01:12:00,71.6,69.4,30.13,NE,55,2.0,8.0,93,0.00,,,0.00,meteohub,2013-11-22 06:12:00,
2013-11-22 01:17:00,71.6,69.4,30.12,NE,54,2.0,7.0,93,0.00,,,0.00,meteohub,2013-11-22 06:17:00,
2013-11-22 01:22:00,71.6,69.4,30.12,ESE,104,1.0,8.0,93,0.00,,,0.00,meteohub,2013-11-22 06:22:00,
2013-11-22 01:27:00,71.6,69.4,30.13,ENE,75,2.0,9.0,93,0.00,,,0.00,meteohub,2013-11-22 06:27:00,
2013-11-22 01:32:00,71.8,69.6,30.12,East,81,2.0,9.0,93,0.00,,,0.00,meteohub,2013-11-22 06:32:00,
2013-11-22 01:37:00,71.8,69.6,30.12,East,90,3.0,9.0,93,0.00,,,0.00,meteohub,2013-11-22 06:37:00,
2013-11-22 01:42:00,71.8,69.6,30.12,East,90,3.0,9.0,93,0.00,,,0.00,meteohub,2013-11-22 06:42:00,
2013-11-22 01:47:00,71.8,69.6,30.12,ENE,74,4.0,7.0,93,0.00,,,0.00,meteohub,2013-11-22 06:47:00,
2013-11-22 01:52:00,71.6,69.4,30.12,East,84,0.0,8.0,93,0.00,,,0.00,meteohub,2013-11-22 06:52:00,
2013-11-22 01:57:00,71.6,69.4,30.12,ENE,61,3.0,8.0,93,0.00,,,0.00,meteohub,2013-11-22 06:57:00,
2013-11-22 02:02:00,71.6,69.4,30.12,East,82,3.0,6.0,93,0.00,,,0.00,meteohub,2013-11-22 07:02:00,
2013-11-22 02:07:00,71.6,69.4,30.12,ENE,78,7.0,7.0,93,0.00,,,0.00,meteohub,2013-11-22 07:07:00,
2013-11-22 02:12:00,71.4,69.3,30.12,ENE,74,2.0,8.0,93,0.00,,,0.00,meteohub,2013-11-22 07:12:00,
2013-11-22 02:17:00,71.4,69.6,30.12,East,92,2.0,8.0,94,0.00,,,0.00,meteohub,2013-11-22 07:17:00,
2013-11-22 02:22:00,71.4,69.6,30.12,ENE,63,2.0,8.0,94,0.00,,,0.00,meteohub,2013-11-22 07:22:00,
2013-11-22 02:29:00,71.2,69.1,30.12,ENE,77,1.0,7.0,93,0.00,,,0.00,meteohub,2013-11-22 07:29:00,
2013-11-22 02:35:00,71.2,69.4,30.12,East,84,0.0,7.0,94,0.00,,,0.00,meteohub,2013-11-22 07:35:00,
2013-11-22 02:41:00,71.2,69.4,30.12,East,80,0.0,6.0,94,0.00,,,0.00,meteohub,2013-11-22 07:41:00,
2013-11-22 02:47:00,71.1,69.3,30.12,East,80,0.0,6.0,94,0.00,,,0.00,meteohub,2013-11-22 07:47:00,
2013-11-22 02:52:00,71.1,69.3,30.12,East,80,0.0,6.0,94,0.00,,,0.00,meteohub,2013-11-22 07:52:00,
2013-11-22 02:57:00,70.9,69.1,30.12,East,80,0.0,5.0,94,0.00,,,0.00,meteohub,2013-11-22 07:57:00,
2013-11-22 03:02:00,70.9,69.1,30.12,East,80,0.0,3.0,94,0.00,,,0.00,meteohub,2013-11-22 08:02:00,
2013-11-22 03:07:00,70.7,68.9,30.12,East,80,0.0,3.0,94,0.00,,,0.00,meteohub,2013-11-22 08:07:00,
2013-11-22 03:12:00,70.5,68.7,30.12,East,80,2.0,3.0,94,0.00,,,0.00,meteohub,2013-11-22 08:12:00,
2013-11-22 03:17:00,70.3,68.5,30.12,NNE,23,2.0,5.0,94,0.00,,,0.00,meteohub,2013-11-22 08:17:00,
2013-11-22 03:22:00,70.3,68.5,30.12,NE,45,2.0,7.0,94,0.00,,,0.00,meteohub,2013-11-22 08:22:00,
2013-11-22 03:27:00,70.2,68.4,30.12,NNE,32,2.0,7.0,94,0.00,,,0.00,meteohub,2013-11-22 08:27:00,
2013-11-22 03:32:00,70.2,68.4,30.12,NNE,32,0.0,4.0,94,0.00,,,0.00,meteohub,2013-11-22 08:32:00,
2013-11-22 03:37:00,70.0,68.2,30.12,NNE,32,0.0,4.0,94,0.00,,,0.00,meteohub,2013-11-22 08:37:00,
2013-11-22 03:42:00,69.8,68.0,30.12,NNE,32,2.0,4.0,94,0.00,,,0.00,meteohub,2013-11-22 08:42:00,
2013-11-22 03:47:00,69.6,68.2,30.12,NNE,32,1.0,3.0,95,0.00,,,0.00,meteohub,2013-11-22 08:47:00,
2013-11-22 03:52:00,69.4,68.0,30.12,NNE,32,1.0,3.0,95,0.00,,,0.00,meteohub,2013-11-22 08:52:00,
2013-11-22 03:57:00,69.4,68.0,30.12,NNE,32,2.0,3.0,95,0.00,,,0.00,meteohub,2013-11-22 08:57:00,
2013-11-22 04:02:00,69.3,67.8,30.12,NNE,32,0.0,3.0,95,0.00,,,0.00,meteohub,2013-11-22 09:02:00,
2013-11-22 04:07:00,69.3,67.8,30.12,NE,53,2.0,5.0,95,0.00,,,0.00,meteohub,2013-11-22 09:07:00,
2013-11-22 04:12:00,69.3,67.8,30.12,NE,53,3.0,5.0,95,0.00,,,0.00,meteohub,2013-11-22 09:12:00,
2013-11-22 04:17:00,69.1,67.6,30.12,ENE,77,3.0,5.0,95,0.00,,,0.00,meteohub,2013-11-22 09:17:00,
2013-11-22 04:22:00,69.1,67.8,30.12,ENE,57,1.0,5.0,96,0.00,,,0.00,meteohub,2013-11-22 09:22:00,
2013-11-22 04:27:00,69.1,67.8,30.12,ENE,71,1.0,5.0,96,0.00,,,0.00,meteohub,2013-11-22 09:27:00,
2013-11-22 04:32:00,68.9,67.6,30.12,East,101,1.0,5.0,96,0.00,,,0.00,meteohub,2013-11-22 09:32:00,
2013-11-22 04:37:00,68.9,67.6,30.12,ENE,66,7.0,7.0,96,0.00,,,0.00,meteohub,2013-11-22 09:37:00,
2013-11-22 04:42:00,68.9,67.6,30.12,ENE,67,0.0,7.0,96,0.00,,,0.00,meteohub,2013-11-22 09:42:00,
2013-11-22 04:47:00,68.9,67.6,30.12,ENE,67,1.0,7.0,96,0.00,,,0.00,meteohub,2013-11-22 09:47:00,
2013-11-22 04:52:00,68.7,67.5,30.12,ENE,67,0.0,7.0,96,0.00,,,0.00,meteohub,2013-11-22 09:52:00,
2013-11-22 04:57:00,68.9,67.6,30.12,ENE,59,1.0,4.0,96,0.00,,,0.00,meteohub,2013-11-22 09:57:00,
2013-11-22 05:02:00,68.9,67.6,30.12,NNE,13,2.0,4.0,96,0.00,,,0.00,meteohub,2013-11-22 10:02:00,
2013-11-22 05:07:00,69.1,67.8,30.12,East,83,2.0,4.0,96,0.00,,,0.00,meteohub,2013-11-22 10:07:00,
2013-11-22 05:12:00,69.1,67.8,30.12,NE,49,2.0,6.0,96,0.00,,,0.00,meteohub,2013-11-22 10:12:00,
2013-11-22 05:17:00,69.3,68.0,30.12,East,81,1.0,7.0,96,0.00,,,0.00,meteohub,2013-11-22 10:17:00,
2013-11-22 05:22:00,69.4,68.2,30.12,ENE,76,1.0,8.0,96,0.00,,,0.00,meteohub,2013-11-22 10:22:00,
2013-11-22 05:27:00,69.4,68.2,30.12,ESE,111,2.0,8.0,96,0.00,,,0.00,meteohub,2013-11-22 10:27:00,
2013-11-22 05:32:00,69.4,68.2,30.12,NE,49,2.0,8.0,96,0.00,,,0.00,meteohub,2013-11-22 10:32:00,
2013-11-22 05:37:00,69.4,68.2,30.12,NE,53,4.0,7.0,96,0.00,,,0.00,meteohub,2013-11-22 10:37:00,
2013-11-22 05:42:00,69.6,68.4,30.12,ENE,71,4.0,7.0,96,0.00,,,0.00,meteohub,2013-11-22 10:42:00,
2013-11-22 05:47:00,69.6,68.4,30.12,ENE,65,4.0,7.0,96,0.00,,,0.00,meteohub,2013-11-22 10:47:00,
2013-11-22 05:52:00,69.6,68.4,30.12,ENE,71,2.0,7.0,96,0.00,,,0.00,meteohub,2013-11-22 10:52:00,
2013-11-22 05:57:00,69.8,68.5,30.12,ENE,74,3.0,7.0,96,0.00,,,0.00,meteohub,2013-11-22 10:57:00,
2013-11-22 06:02:00,70.0,68.7,30.12,ENE,61,4.0,9.0,96,0.00,,,0.00,meteohub,2013-11-22 11:02:00,
2013-11-22 06:07:00,70.2,68.9,30.12,East,94,3.0,9.0,96,0.00,,,0.00,meteohub,2013-11-22 11:07:00,
2013-11-22 06:12:00,70.2,68.7,30.12,ENE,67,5.0,9.0,95,0.00,,,0.00,meteohub,2013-11-22 11:12:00,
2013-11-22 06:17:00,70.2,68.9,30.13,ENE,78,2.0,8.0,96,0.00,,,0.00,meteohub,2013-11-22 11:17:00,
2013-11-22 06:22:00,70.3,68.9,30.13,NE,44,2.0,8.0,95,0.00,,,0.00,meteohub,2013-11-22 11:22:00,
2013-11-22 06:27:00,70.3,68.9,30.13,East,80,1.0,8.0,95,0.00,,,0.00,meteohub,2013-11-22 11:27:00,
2013-11-22 06:32:00,70.5,69.1,30.13,ENE,71,4.0,8.0,95,0.00,,,0.00,meteohub,2013-11-22 11:32:00,
2013-11-22 06:37:00,70.5,69.1,30.13,SE,138,1.0,8.0,95,0.00,,,0.00,meteohub,2013-11-22 11:37:00,
2013-11-22 06:42:00,70.5,69.1,30.13,ESE,120,3.0,9.0,95,0.00,,,0.00,meteohub,2013-11-22 11:42:00,
2013-11-22 06:47:00,70.5,69.1,30.13,East,80,7.0,9.0,95,0.00,,,0.00,meteohub,2013-11-22 11:47:00,
2013-11-22 06:52:00,70.7,69.3,30.13,ENE,75,3.0,10.0,95,0.00,,,0.00,meteohub,2013-11-22 11:52:00,
2013-11-22 06:57:00,70.7,69.3,30.13,East,82,1.0,10.0,95,0.00,,,0.00,meteohub,2013-11-22 11:57:00,
2013-11-22 07:02:00,70.7,69.3,30.13,East,83,2.0,10.0,95,0.00,,,0.00,meteohub,2013-11-22 12:02:00,
2013-11-22 07:07:00,70.7,69.3,30.14,ENE,74,2.0,7.0,95,0.00,,,0.00,meteohub,2013-11-22 12:07:00,
2013-11-22 07:12:00,70.9,69.4,30.14,ENE,73,3.0,6.0,95,0.00,,,0.00,meteohub,2013-11-22 12:12:00,
2013-11-22 07:17:00,70.9,69.4,30.14,ENE,63,3.0,7.0,95,0.00,,,0.00,meteohub,2013-11-22 12:17:00,
2013-11-22 07:22:00,70.9,69.4,30.14,ENE,57,3.0,7.0,95,0.00,,,0.00,meteohub,2013-11-22 12:22:00,
2013-11-22 07:27:00,71.1,69.6,30.14,ENE,74,2.0,7.0,95,0.00,,,0.00,meteohub,2013-11-22 12:27:00,
2013-11-22 07:32:00,71.1,69.6,30.14,ENE,74,2.0,7.0,95,0.00,,,0.00,meteohub,2013-11-22 12:32:00,
2013-11-22 07:37:00,71.1,69.6,30.14,ENE,69,1.0,6.0,95,0.00,,,0.00,meteohub,2013-11-22 12:37:00,
2013-11-22 07:42:00,71.2,69.4,30.14,NNE,27,5.0,6.0,94,0.00,,,0.00,meteohub,2013-11-22 12:42:00,
2013-11-22 07:47:00,71.2,69.4,30.14,ENE,69,1.0,8.0,94,0.00,,,0.00,meteohub,2013-11-22 12:47:00,
2013-11-22 07:52:00,71.2,69.4,30.14,ENE,68,2.0,8.0,94,0.00,,,0.00,meteohub,2013-11-22 12:52:00,
2013-11-22 07:57:00,71.4,69.6,30.14,NE,51,6.0,8.0,94,0.00,,,0.00,meteohub,2013-11-22 12:57:00,
2013-11-22 08:02:00,71.4,69.6,30.14,East,94,1.0,8.0,94,0.00,,,0.00,meteohub,2013-11-22 13:02:00,
2013-11-22 08:07:00,71.6,69.8,30.14,ENE,69,7.0,8.0,94,0.00,,,0.00,meteohub,2013-11-22 13:07:00,
2013-11-22 08:12:00,71.8,70.0,30.14,NE,44,4.0,8.0,94,0.00,,,0.00,meteohub,2013-11-22 13:12:00,
2013-11-22 08:17:00,71.8,69.6,30.15,ENE,71,4.0,8.0,93,0.00,,,0.00,meteohub,2013-11-22 13:17:00,
2013-11-22 08:22:00,71.8,69.6,30.15,NE,35,5.0,9.0,93,0.00,,,0.00,meteohub,2013-11-22 13:22:00,
2013-11-22 08:27:00,72.0,69.8,30.15,East,82,2.0,9.0,93,0.00,,,0.00,meteohub,2013-11-22 13:27:00,
2013-11-22 08:32:00,72.0,69.8,30.15,NE,49,2.0,9.0,93,0.00,,,0.00,meteohub,2013-11-22 13:32:00,
2013-11-22 08:37:00,72.1,70.0,30.15,ENE,67,1.0,8.0,93,0.00,,,0.00,meteohub,2013-11-22 13:37:00,
2013-11-22 08:42:00,72.1,70.0,30.15,NE,51,4.0,8.0,93,0.00,,,0.00,meteohub,2013-11-22 13:42:00,
2013-11-22 08:47:00,72.3,70.2,30.15,ENE,74,9.0,9.0,93,0.00,,,0.00,meteohub,2013-11-22 13:47:00,
2013-11-22 08:52:00,72.3,69.8,30.15,East,100,2.0,9.0,92,0.00,,,0.00,meteohub,2013-11-22 13:52:00,
2013-11-22 08:57:00,72.7,70.2,30.15,East,79,3.0,9.0,92,0.00,,,0.00,meteohub,2013-11-22 13:57:00,
2013-11-22 09:02:00,73.0,70.5,30.15,East,88,3.0,9.0,92,0.00,,,0.00,meteohub,2013-11-22 14:02:00,
2013-11-22 09:07:00,73.6,71.1,30.15,NE,56,3.0,10.0,92,0.00,,,0.00,meteohub,2013-11-22 14:07:00,
2013-11-22 09:12:00,73.9,70.9,30.16,ENE,69,4.0,10.0,90,0.00,,,0.00,meteohub,2013-11-22 14:12:00,
2013-11-22 09:17:00,74.3,71.2,30.16,NE,39,7.0,10.0,90,0.00,,,0.00,meteohub,2013-11-22 14:17:00,
2013-11-22 09:22:00,74.7,71.2,30.16,ENE,76,3.0,10.0,89,0.00,,,0.00,meteohub,2013-11-22 14:22:00,
2013-11-22 09:27:00,75.0,71.2,30.16,East,94,2.0,10.0,88,0.00,,,0.00,meteohub,2013-11-22 14:27:00,
2013-11-22 09:32:00,75.2,71.4,30.16,NE,49,7.0,10.0,88,0.00,,,0.00,meteohub,2013-11-22 14:32:00,
2013-11-22 09:37:00,75.2,71.1,30.16,East,101,2.0,10.0,87,0.00,,,0.00,meteohub,2013-11-22 14:37:00,
2013-11-22 09:42:00,75.2,71.1,30.16,NE,38,4.0,10.0,87,0.00,,,0.00,meteohub,2013-11-22 14:42:00,
2013-11-22 09:47:00,75.4,71.2,30.16,NE,34,5.0,10.0,87,0.00,,,0.00,meteohub,2013-11-22 14:47:00,
2013-11-22 09:52:00,75.6,71.4,30.16,ENE,63,8.0,10.0,87,0.00,,,0.00,meteohub,2013-11-22 14:52:00,
2013-11-22 09:57:00,75.7,71.6,30.16,ESE,102,1.0,11.0,87,0.00,,,0.00,meteohub,2013-11-22 14:57:00,
2013-11-22 10:02:00,76.1,71.6,30.16,NE,54,4.0,11.0,86,0.00,,,0.00,meteohub,2013-11-22 15:02:00,
2013-11-22 10:07:00,76.5,72.0,30.16,ENE,58,5.0,9.0,86,0.00,,,0.00,meteohub,2013-11-22 15:07:00,
2013-11-22 10:12:00,76.6,72.1,30.16,SE,128,3.0,9.0,86,0.00,,,0.00,meteohub,2013-11-22 15:12:00,
2013-11-22 10:17:00,76.6,71.8,30.16,ESE,111,1.0,9.0,85,0.00,,,0.00,meteohub,2013-11-22 15:17:00,
2013-11-22 10:22:00,76.8,71.6,30.16,East,92,5.0,10.0,84,0.00,,,0.00,meteohub,2013-11-22 15:22:00,
2013-11-22 10:27:00,77.2,72.0,30.16,SSE,148,1.0,10.0,84,0.00,,,0.00,meteohub,2013-11-22 15:27:00,
2013-11-22 10:32:00,77.4,71.8,30.16,East,80,2.0,12.0,83,0.00,,,0.00,meteohub,2013-11-22 15:32:00,
2013-11-22 10:37:00,77.5,72.0,30.16,East,85,3.0,12.0,83,0.00,,,0.00,meteohub,2013-11-22 15:37:00,
2013-11-22 10:42:00,78.1,72.5,30.16,ESE,113,2.0,11.0,83,0.00,,,0.00,meteohub,2013-11-22 15:42:00,
2013-11-22 10:47:00,78.3,72.3,30.15,NE,47,3.0,11.0,82,0.00,,,0.00,meteohub,2013-11-22 15:47:00,
2013-11-22 10:52:00,78.1,72.1,30.15,ENE,60,0.0,11.0,82,0.00,,,0.00,meteohub,2013-11-22 15:52:00,
2013-11-22 10:57:00,78.1,72.1,30.15,ENE,65,4.0,11.0,82,0.00,,,0.00,meteohub,2013-11-22 15:57:00,
2013-11-22 11:02:00,77.9,72.0,30.15,SSE,147,2.0,11.0,82,0.00,,,0.00,meteohub,2013-11-22 16:02:00,
2013-11-22 11:07:00,77.9,72.0,30.15,East,101,1.0,9.0,82,0.00,,,0.00,meteohub,2013-11-22 16:07:00,
2013-11-22 11:12:00,77.9,72.0,30.15,SE,137,6.0,8.0,82,0.00,,,0.00,meteohub,2013-11-22 16:12:00,
2013-11-22 11:17:00,77.9,72.0,30.15,SE,134,2.0,8.0,82,0.00,,,0.00,meteohub,2013-11-22 16:17:00,
2013-11-22 11:22:00,78.1,72.1,30.15,ESE,115,2.0,7.0,82,0.00,,,0.00,meteohub,2013-11-22 16:22:00,
2013-11-22 11:27:00,78.3,72.3,30.15,NE,42,5.0,8.0,82,0.00,,,0.00,meteohub,2013-11-22 16:27:00,
2013-11-22 11:32:00,78.1,71.8,30.14,East,88,2.0,8.0,81,0.00,,,0.00,meteohub,2013-11-22 16:32:00,
2013-11-22 11:37:00,78.1,72.1,30.14,ESE,121,1.0,8.0,82,0.00,,,0.00,meteohub,2013-11-22 16:37:00,
2013-11-22 11:42:00,78.1,72.1,30.14,SSE,156,6.0,8.0,82,0.00,,,0.00,meteohub,2013-11-22 16:42:00,
2013-11-22 11:47:00,78.1,71.8,30.14,ENE,66,0.0,8.0,81,0.00,,,0.00,meteohub,2013-11-22 16:47:00,
2013-11-22 11:52:00,78.3,72.0,30.14,ENE,62,0.0,6.0,81,0.00,,,0.00,meteohub,2013-11-22 16:52:00,
2013-11-22 11:57:00,78.4,72.1,30.13,SE,128,0.0,6.0,81,0.00,,,0.00,meteohub,2013-11-22 16:57:00,
2013-11-22 12:02:00,78.6,72.3,30.13,NNE,28,4.0,5.0,81,0.00,,,0.00,meteohub,2013-11-22 17:02:00,
2013-11-22 12:07:00,78.6,72.0,30.13,SE,126,2.0,7.0,80,0.00,,,0.00,meteohub,2013-11-22 17:07:00,
2013-11-22 12:12:00,78.8,72.1,30.12,ENE,71,2.0,7.0,80,0.00,,,0.00,meteohub,2013-11-22 17:12:00,
2013-11-22 12:17:00,79.0,71.6,30.12,ESE,113,2.0,7.0,78,0.00,,,0.00,meteohub,2013-11-22 17:17:00,
2013-11-22 12:22:00,79.2,71.8,30.12,ENE,61,3.0,9.0,78,0.00,,,0.00,meteohub,2013-11-22 17:22:00,
2013-11-22 12:27:00,79.3,72.0,30.12,ENE,66,7.0,9.0,78,0.00,,,0.00,meteohub,2013-11-22 17:27:00,
2013-11-22 12:32:00,79.5,72.1,30.12,ESE,107,3.0,9.0,78,0.00,,,0.00,meteohub,2013-11-22 17:32:00,
2013-11-22 12:37:00,80.1,72.1,30.11,ENE,77,3.0,9.0,77,0.00,,,0.00,meteohub,2013-11-22 17:37:00,
2013-11-22 12:42:00,80.4,72.1,30.11,NE,54,4.0,9.0,76,0.00,,,0.00,meteohub,2013-11-22 17:42:00,
2013-11-22 12:47:00,80.4,71.4,30.11,ENE,65,8.0,8.0,74,0.00,,,0.00,meteohub,2013-11-22 17:47:00,
2013-11-22 12:52:00,80.2,71.6,30.11,East,81,2.0,9.0,75,0.00,,,0.00,meteohub,2013-11-22 17:52:00,
2013-11-22 12:57:00,80.2,71.2,30.10,East,90,2.0,9.0,74,0.00,,,0.00,meteohub,2013-11-22 17:57:00,
2013-11-22 13:02:00,80.4,71.4,30.10,ESE,123,4.0,8.0,74,0.00,,,0.00,meteohub,2013-11-22 18:02:00,
2013-11-22 13:07:00,80.4,71.4,30.10,North,355,0.0,7.0,74,0.00,,,0.00,meteohub,2013-11-22 18:07:00,
2013-11-22 13:12:00,80.8,71.2,30.09,ESE,119,3.0,7.0,73,0.00,,,0.00,meteohub,2013-11-22 18:12:00,
2013-11-22 13:17:00,81.0,71.1,30.09,NE,53,0.0,10.0,72,0.00,,,0.00,meteohub,2013-11-22 18:17:00,
2013-11-22 13:22:00,81.1,71.2,30.09,ESE,121,1.0,10.0,72,0.00,,,0.00,meteohub,2013-11-22 18:22:00,
2013-11-22 13:27:00,81.1,70.9,30.09,ESE,111,3.0,9.0,71,0.00,,,0.00,meteohub,2013-11-22 18:27:00,
2013-11-22 13:32:00,81.1,70.9,30.09,ESE,108,3.0,9.0,71,0.00,,,0.00,meteohub,2013-11-22 18:32:00,
2013-11-22 13:37:00,81.3,71.1,30.09,NE,40,3.0,8.0,71,0.00,,,0.00,meteohub,2013-11-22 18:37:00,
2013-11-22 13:42:00,81.7,71.4,30.09,NE,55,2.0,8.0,71,0.00,,,0.00,meteohub,2013-11-22 18:42:00,
2013-11-22 13:47:00,81.7,71.4,30.09,ESE,114,4.0,7.0,71,0.00,,,0.00,meteohub,2013-11-22 18:47:00,
2013-11-22 13:52:00,81.7,71.4,30.08,SE,124,3.0,6.0,71,0.00,,,0.00,meteohub,2013-11-22 18:52:00,
2013-11-22 13:57:00,81.7,70.9,30.08,ESE,115,2.0,6.0,70,0.00,,,0.00,meteohub,2013-11-22 18:57:00,
2013-11-22 14:02:00,81.9,71.1,30.07,ENE,59,1.0,6.0,70,0.00,,,0.00,meteohub,2013-11-22 19:02:00,
2013-11-22 14:07:00,82.2,71.1,30.07,ESE,123,1.0,7.0,69,0.00,,,0.00,meteohub,2013-11-22 19:07:00,
2013-11-22 14:12:00,82.8,71.6,30.07,ENE,69,4.0,7.0,69,0.00,,,0.00,meteohub,2013-11-22 19:12:00,
2013-11-22 14:17:00,82.8,71.1,30.07,ENE,64,3.0,7.0,68,0.00,,,0.00,meteohub,2013-11-22 19:17:00,
2013-11-22 14:22:00,82.9,71.2,30.07,South,171,1.0,7.0,68,0.00,,,0.00,meteohub,2013-11-22 19:22:00,
2013-11-22 14:27:00,83.3,71.6,30.06,ESE,104,4.0,7.0,68,0.00,,,0.00,meteohub,2013-11-22 19:27:00,
2013-11-22 14:32:00,83.3,71.2,30.06,East,98,2.0,6.0,67,0.00,,,0.00,meteohub,2013-11-22 19:32:00,
2013-11-22 14:37:00,83.1,71.1,30.06,ESE,123,7.0,8.0,67,0.00,,,0.00,meteohub,2013-11-22 19:37:00,
2013-11-22 14:42:00,83.1,71.1,30.06,SE,128,2.0,8.0,67,0.00,,,0.00,meteohub,2013-11-22 19:42:00,
2013-11-22 14:47:00,83.1,70.5,30.06,East,94,2.0,8.0,66,0.00,,,0.00,meteohub,2013-11-22 19:47:00,
2013-11-22 14:52:00,83.1,70.5,30.06,NE,43,6.0,12.0,66,0.00,,,0.00,meteohub,2013-11-22 19:52:00,
2013-11-22 14:57:00,83.1,69.6,30.06,ENE,74,2.0,12.0,64,0.00,,,0.00,meteohub,2013-11-22 19:57:00,
2013-11-22 15:02:00,82.9,69.4,30.06,ENE,71,2.0,10.0,64,0.00,,,0.00,meteohub,2013-11-22 20:02:00,
2013-11-22 15:07:00,82.6,69.6,30.06,ENE,74,2.0,8.0,65,0.00,,,0.00,meteohub,2013-11-22 20:07:00,
2013-11-22 15:12:00,82.2,69.8,30.06,ENE,71,2.0,8.0,66,0.00,,,0.00,meteohub,2013-11-22 20:12:00,
2013-11-22 15:17:00,82.2,69.8,30.06,East,79,7.0,8.0,66,0.00,,,0.00,meteohub,2013-11-22 20:17:00,
2013-11-22 15:22:00,82.2,70.2,30.06,NNE,30,5.0,8.0,67,0.00,,,0.00,meteohub,2013-11-22 20:22:00,
2013-11-22 15:27:00,82.4,70.0,30.06,ENE,61,3.0,8.0,66,0.00,,,0.00,meteohub,2013-11-22 20:27:00,
2013-11-22 15:32:00,82.4,70.0,30.06,East,79,3.0,8.0,66,0.00,,,0.00,meteohub,2013-11-22 20:32:00,
2013-11-22 15:37:00,82.4,70.0,30.06,East,89,0.0,8.0,66,0.00,,,0.00,meteohub,2013-11-22 20:37:00,
2013-11-22 15:42:00,82.6,70.0,30.06,ENE,71,5.0,8.0,66,0.00,,,0.00,meteohub,2013-11-22 20:42:00,
2013-11-22 15:47:00,82.6,70.0,30.06,ESE,121,3.0,8.0,66,0.00,,,0.00,meteohub,2013-11-22 20:47:00,
2013-11-22 15:52:00,82.8,69.8,30.06,ENE,61,1.0,8.0,65,0.00,,,0.00,meteohub,2013-11-22 20:52:00,
2013-11-22 15:57:00,82.9,70.0,30.06,SSE,153,3.0,8.0,65,0.00,,,0.00,meteohub,2013-11-22 20:57:00,
2013-11-22 16:02:00,82.9,70.0,30.06,ENE,57,5.0,6.0,65,0.00,,,0.00,meteohub,2013-11-22 21:02:00,
2013-11-22 16:07:00,82.8,70.2,30.06,East,91,2.0,7.0,66,0.00,,,0.00,meteohub,2013-11-22 21:07:00,
2013-11-22 16:12:00,82.6,70.5,30.06,SE,134,5.0,7.0,67,0.00,,,0.00,meteohub,2013-11-22 21:12:00,
2013-11-22 16:17:00,82.6,70.9,30.06,ENE,62,7.0,7.0,68,0.00,,,0.00,meteohub,2013-11-22 21:17:00,
2013-11-22 16:22:00,82.4,70.7,30.06,ENE,73,3.0,8.0,68,0.00,,,0.00,meteohub,2013-11-22 21:22:00,
2013-11-22 16:27:00,82.0,70.3,30.06,SE,127,1.0,8.0,68,0.00,,,0.00,meteohub,2013-11-22 21:27:00,
2013-11-22 16:32:00,81.9,71.1,30.06,East,93,1.0,8.0,70,0.00,,,0.00,meteohub,2013-11-22 21:32:00,
2013-11-22 16:37:00,81.7,70.9,30.06,ENE,57,0.0,6.0,70,0.00,,,0.00,meteohub,2013-11-22 21:37:00,
2013-11-22 16:42:00,81.7,71.4,30.06,East,85,5.0,5.0,71,0.00,,,0.00,meteohub,2013-11-22 21:42:00,
2013-11-22 16:47:00,80.6,70.7,30.06,SE,126,1.0,9.0,72,0.01,,,0.01,meteohub,2013-11-22 21:47:00,
2013-11-22 16:52:00,79.9,71.2,30.06,East,86,0.0,9.0,75,0.01,,,0.01,meteohub,2013-11-22 21:52:00,
2013-11-22 16:57:00,79.3,72.0,30.06,East,86,0.0,7.0,78,0.01,,,0.01,meteohub,2013-11-22 21:57:00,
2013-11-22 17:02:00,79.0,72.3,30.07,East,87,0.0,2.0,80,0.01,,,0.01,meteohub,2013-11-22 22:02:00,
2013-11-22 17:07:00,78.6,72.0,30.06,East,87,0.0,1.0,80,0.01,,,0.01,meteohub,2013-11-22 22:07:00,
2013-11-22 17:12:00,78.3,72.0,30.07,East,87,0.0,1.0,81,0.01,,,0.01,meteohub,2013-11-22 22:12:00,
2013-11-22 17:17:00,77.9,71.6,30.07,East,87,0.0,2.0,81,0.01,,,0.01,meteohub,2013-11-22 22:17:00,
2013-11-22 17:22:00,77.5,71.2,30.07,East,87,1.0,2.0,81,0.01,,,0.01,meteohub,2013-11-22 22:22:00,
2013-11-22 17:27:00,77.2,70.2,30.06,ENE,62,2.0,3.0,79,0.01,,,0.01,meteohub,2013-11-22 22:27:00,
2013-11-22 17:32:00,76.8,70.2,30.06,ENE,65,0.0,5.0,80,0.01,,,0.01,meteohub,2013-11-22 22:32:00,
2013-11-22 17:37:00,76.6,69.6,30.07,ENE,76,1.0,5.0,79,0.01,,,0.01,meteohub,2013-11-22 22:37:00,
2013-11-22 17:42:00,76.6,70.0,30.07,ENE,76,3.0,5.0,80,0.01,,,0.01,meteohub,2013-11-22 22:42:00,
2013-11-22 17:47:00,76.5,69.4,30.07,ENE,69,2.0,5.0,79,0.00,,,0.01,meteohub,2013-11-22 22:47:00,
2013-11-22 17:52:00,76.6,69.6,30.07,East,80,1.0,5.0,79,0.00,,,0.01,meteohub,2013-11-22 22:52:00,
2013-11-22 17:57:00,76.6,69.6,30.07,East,82,3.0,7.0,79,0.00,,,0.01,meteohub,2013-11-22 22:57:00,
2013-11-22 18:02:00,76.6,69.6,30.07,NE,53,1.0,7.0,79,0.00,,,0.01,meteohub,2013-11-22 23:02:00,
2013-11-22 18:07:00,76.5,69.4,30.07,NE,56,2.0,7.0,79,0.00,,,0.01,meteohub,2013-11-22 23:07:00,
2013-11-22 18:12:00,76.5,69.8,30.07,ENE,64,2.0,6.0,80,0.00,,,0.01,meteohub,2013-11-22 23:12:00,
2013-11-22 18:17:00,76.3,69.6,30.08,ENE,77,4.0,5.0,80,0.00,,,0.01,meteohub,2013-11-22 23:17:00,
2013-11-22 18:22:00,76.3,69.6,30.08,ENE,74,1.0,5.0,80,0.00,,,0.01,meteohub,2013-11-22 23:22:00,
2013-11-22 18:27:00,76.1,69.4,30.08,ENE,72,1.0,5.0,80,0.00,,,0.01,meteohub,2013-11-22 23:27:00,
2013-11-22 18:32:00,75.9,69.3,30.08,ENE,71,2.0,4.0,80,0.00,,,0.01,meteohub,2013-11-22 23:32:00,
2013-11-22 18:37:00,75.9,69.6,30.09,ENE,74,0.0,4.0,81,0.00,,,0.01,meteohub,2013-11-22 23:37:00,
2013-11-22 18:42:00,75.9,69.6,30.09,East,81,0.0,5.0,81,0.00,,,0.01,meteohub,2013-11-22 23:42:00,
2013-11-22 18:47:00,75.9,69.6,30.09,ENE,69,1.0,6.0,81,0.00,,,0.01,meteohub,2013-11-22 23:47:00,
2013-11-22 18:52:00,75.9,69.6,30.09,ENE,69,1.0,6.0,81,0.00,,,0.01,meteohub,2013-11-22 23:52:00,
2013-11-22 18:57:00,75.9,69.6,30.09,East,86,5.0,8.0,81,0.00,,,0.01,meteohub,2013-11-22 23:57:00,
2013-11-22 19:02:00,75.9,69.6,30.09,ENE,64,2.0,8.0,81,0.00,,,0.01,meteohub,2013-11-23 00:02:00,
2013-11-22 19:07:00,75.9,69.3,30.09,ENE,65,3.0,8.0,80,0.00,,,0.01,meteohub,2013-11-23 00:07:00,
2013-11-22 19:12:00,75.9,69.3,30.09,ENE,70,3.0,7.0,80,0.00,,,0.01,meteohub,2013-11-23 00:12:00,
2013-11-22 19:17:00,75.9,69.3,30.09,ENE,78,2.0,7.0,80,0.00,,,0.01,meteohub,2013-11-23 00:17:00,
2013-11-22 19:22:00,75.9,69.3,30.09,ENE,63,4.0,8.0,80,0.00,,,0.01,meteohub,2013-11-23 00:22:00,
2013-11-22 19:27:00,75.9,69.3,30.09,East,86,3.0,8.0,80,0.00,,,0.01,meteohub,2013-11-23 00:27:00,
2013-11-22 19:32:00,75.9,69.3,30.09,ENE,76,4.0,8.0,80,0.00,,,0.01,meteohub,2013-11-23 00:32:00,
2013-11-22 19:37:00,75.9,69.3,30.09,NE,40,4.0,8.0,80,0.00,,,0.01,meteohub,2013-11-23 00:37:00,
2013-11-22 19:42:00,75.9,69.3,30.09,NE,53,2.0,8.0,80,0.00,,,0.01,meteohub,2013-11-23 00:42:00,
2013-11-22 19:47:00,75.9,69.3,30.09,ENE,67,1.0,8.0,80,0.00,,,0.01,meteohub,2013-11-23 00:47:00,
2013-11-22 19:52:00,75.7,69.1,30.09,ENE,69,2.0,8.0,80,0.00,,,0.01,meteohub,2013-11-23 00:52:00,
2013-11-22 19:57:00,75.6,68.9,30.09,ENE,59,2.0,7.0,80,0.00,,,0.01,meteohub,2013-11-23 00:57:00,
2013-11-22 20:02:00,75.6,68.9,30.09,ENE,63,3.0,5.0,80,0.00,,,0.01,meteohub,2013-11-23 01:02:00,
2013-11-22 20:07:00,75.4,68.7,30.09,ENE,63,0.0,5.0,80,0.00,,,0.01,meteohub,2013-11-23 01:07:00,
2013-11-22 20:12:00,75.2,68.5,30.09,ENE,67,10.0,10.0,80,0.00,,,0.01,meteohub,2013-11-23 01:12:00,
2013-11-22 20:17:00,75.0,68.0,30.09,ENE,78,3.0,10.0,79,0.00,,,0.01,meteohub,2013-11-23 01:17:00,
2013-11-22 20:22:00,74.8,67.8,30.09,ENE,63,5.0,10.0,79,0.00,,,0.01,meteohub,2013-11-23 01:22:00,
2013-11-22 20:27:00,74.8,67.8,30.09,ENE,58,8.0,10.0,79,0.00,,,0.01,meteohub,2013-11-23 01:27:00,
2013-11-22 20:34:00,74.7,67.6,30.10,ENE,75,3.0,9.0,79,0.00,,,0.01,meteohub,2013-11-23 01:34:00,
2013-11-22 20:40:00,74.5,67.5,30.10,ENE,75,3.0,9.0,79,0.00,,,0.01,meteohub,2013-11-23 01:40:00,
2013-11-22 20:46:00,74.5,67.5,30.10,ENE,65,3.0,9.0,79,0.00,,,0.01,meteohub,2013-11-23 01:46:00,
2013-11-22 20:52:00,74.3,67.3,30.10,East,92,2.0,9.0,79,0.00,,,0.01,meteohub,2013-11-23 01:52:00,
2013-11-22 20:57:00,74.1,67.6,30.10,ENE,74,2.0,8.0,80,0.00,,,0.01,meteohub,2013-11-23 01:57:00,
2013-11-22 21:02:00,73.9,67.1,30.10,NE,55,6.0,7.0,79,0.00,,,0.01,meteohub,2013-11-23 02:02:00,
2013-11-22 21:07:00,73.9,67.1,30.10,ENE,76,4.0,10.0,79,0.00,,,0.01,meteohub,2013-11-23 02:07:00,
2013-11-22 21:12:00,73.8,66.9,30.10,ENE,74,2.0,10.0,79,0.00,,,0.01,meteohub,2013-11-23 02:12:00,
2013-11-22 21:17:00,73.8,66.4,30.10,ENE,76,4.0,11.0,78,0.00,,,0.01,meteohub,2013-11-23 02:17:00,
2013-11-22 21:22:00,73.6,66.4,30.10,ENE,76,3.0,11.0,78,0.00,,,0.01,meteohub,2013-11-23 02:22:00,
2013-11-22 21:27:00,73.4,66.2,30.10,East,82,3.0,11.0,78,0.00,,,0.01,meteohub,2013-11-23 02:27:00,
2013-11-22 21:32:00,73.2,66.0,30.10,ENE,63,4.0,8.0,78,0.00,,,0.01,meteohub,2013-11-23 02:32:00,
2013-11-22 21:37:00,73.2,66.4,30.10,ENE,76,4.0,8.0,79,0.00,,,0.01,meteohub,2013-11-23 02:37:00,
2013-11-22 21:42:00,73.0,66.2,30.10,ENE,69,5.0,9.0,79,0.00,,,0.01,meteohub,2013-11-23 02:42:00,
2013-11-22 21:47:00,73.0,66.6,30.10,ENE,63,7.0,9.0,80,0.00,,,0.01,meteohub,2013-11-23 02:47:00,
2013-11-22 21:52:00,73.0,66.6,30.10,SSE,153,3.0,9.0,80,0.00,,,0.01,meteohub,2013-11-23 02:52:00,
2013-11-22 21:57:00,72.9,66.7,30.10,ENE,77,2.0,9.0,81,0.00,,,0.01,meteohub,2013-11-23 02:57:00,
2013-11-22 22:02:00,72.9,66.7,30.10,ENE,57,2.0,9.0,81,0.00,,,0.01,meteohub,2013-11-23 03:02:00,
2013-11-22 22:07:00,72.7,66.6,30.10,ENE,66,2.0,8.0,81,0.00,,,0.01,meteohub,2013-11-23 03:07:00,
2013-11-22 22:12:00,72.7,66.6,30.10,ENE,63,2.0,8.0,81,0.00,,,0.01,meteohub,2013-11-23 03:12:00,
2013-11-22 22:17:00,72.5,66.7,30.11,ENE,63,1.0,5.0,82,0.00,,,0.01,meteohub,2013-11-23 03:17:00,
2013-11-22 22:22:00,72.3,66.6,30.11,ENE,63,0.0,5.0,82,0.00,,,0.01,meteohub,2013-11-23 03:22:00,
2013-11-22 22:27:00,72.1,66.7,30.11,ENE,63,1.0,4.0,83,0.00,,,0.01,meteohub,2013-11-23 03:27:00,
2013-11-22 22:32:00,72.0,66.6,30.11,ENE,59,3.0,4.0,83,0.00,,,0.01,meteohub,2013-11-23 03:32:00,
2013-11-22 22:37:00,72.0,66.6,30.11,ENE,60,1.0,4.0,83,0.00,,,0.01,meteohub,2013-11-23 03:37:00,
2013-11-22 22:42:00,71.8,66.4,30.10,ENE,74,0.0,4.0,83,0.00,,,0.01,meteohub,2013-11-23 03:42:00,
2013-11-22 22:47:00,71.6,66.2,30.10,ENE,73,2.0,6.0,83,0.00,,,0.01,meteohub,2013-11-23 03:47:00,
2013-11-22 22:52:00,71.6,66.6,30.10,East,93,3.0,6.0,84,0.00,,,0.01,meteohub,2013-11-23 03:52:00,
2013-11-22 22:57:00,71.4,66.4,30.10,ENE,67,3.0,7.0,84,0.00,,,0.01,meteohub,2013-11-23 03:57:00,
2013-11-22 23:02:00,71.4,66.4,30.10,ENE,69,1.0,7.0,84,0.00,,,0.01,meteohub,2013-11-23 04:02:00,
2013-11-22 23:07:00,71.4,66.4,30.10,ENE,68,3.0,7.0,84,0.00,,,0.01,meteohub,2013-11-23 04:07:00,
2013-11-22 23:12:00,71.2,66.2,30.10,ESE,110,1.0,7.0,84,0.00,,,0.01,meteohub,2013-11-23 04:12:00,
2013-11-22 23:17:00,71.2,66.2,30.10,ENE,70,1.0,7.0,84,0.00,,,0.01,meteohub,2013-11-23 04:17:00,
2013-11-22 23:22:00,71.2,66.2,30.10,ENE,65,2.0,7.0,84,0.00,,,0.01,meteohub,2013-11-23 04:22:00,
2013-11-22 23:27:00,71.2,66.2,30.10,ENE,59,1.0,5.0,84,0.00,,,0.01,meteohub,2013-11-23 04:27:00,
2013-11-22 23:32:00,71.1,66.0,30.10,ENE,58,1.0,6.0,84,0.00,,,0.01,meteohub,2013-11-23 04:32:00,
2013-11-22 23:37:00,71.1,66.0,30.10,East,96,1.0,6.0,84,0.00,,,0.01,meteohub,2013-11-23 04:37:00,
2013-11-22 23:42:00,71.1,66.0,30.09,East,84,5.0,5.0,84,0.00,,,0.01,meteohub,2013-11-23 04:42:00,
2013-11-22 23:47:00,70.9,65.8,30.09,ESE,105,2.0,7.0,84,0.00,,,0.01,meteohub,2013-11-23 04:47:00,
2013-11-22 23:52:00,70.9,65.8,30.09,ENE,77,3.0,9.0,84,0.00,,,0.01,meteohub,2013-11-23 04:52:00,
2013-11-22 23:57:00,70.9,65.8,30.09,ENE,77,1.0,9.0,84,0.00,,,0.01,meteohub,2013-11-23 04:57:00,